Location: Unspecified
(47.9110°N, 14.3980°E)
Time: 22:21:16
(UTC+00:00)

Cosmos 1833 Rocket - Pass Details

Date: 06 August 2020
Orbit: 831 x 841 km, 71.0° (Epoch: 22 September)

Event Time Altitude Azimuth Distance (km) Brightness Sun altitude
Rises 21:27:17 0° 236° (SW) 3,369 5.8 -21.9°
Reaches altitude 10° 21:29:57 10° 246° (WSW) 2,440 5.1 -22.1°
Maximum altitude 21:34:59 33° 310° (NW) 1,366 4.3 -22.4°
Drops below altitude 10° 21:40:04 10° 14° (NNE) 2,458 5.8 -22.8°
Sets 21:42:46 0° 24° (NNE) 3,398 6.5 -22.9°
